| time (UTC) | temp F | wind direction | speed knots | gust knots | rain 1hr in | rain 24hr in | rain mn in | humidity % | barometer mb |
| 20260901124520 | 62 | 133 | 0.0 | 6.1 | 0.00 | 0.00 | 0.00 | 81 | 1008.5 |
| 20260901123019 | 62 | 89 | 0.0 | 0.0 | 0.00 | 0.00 | 0.00 | 82 | 1008.3 |
| 20260901121518 | 62 | 89 | 0.0 | 4.3 | 0.00 | 0.00 | 0.00 | 82 | 1008.4 |
| 20260901120017 | 62 | 254 | 0.0 | 0.0 | 0.00 | 0.00 | 0.00 | 82 | 1008.3 |
| 20260901114515 | 62 | 254 | 0.0 | 3.5 | 0.00 | 0.00 | 0.00 | 81 | 1008.1 |
| 20260901113014 | 62 | 254 | 0.0 | 1.7 | 0.00 | 0.00 | 0.00 | 81 | 1008.3 |
| 20260901111512 | 63 | 286 | 0.0 | 2.6 | 0.00 | 0.00 | 0.00 | 80 | 1007.9 |
| 20260901110011 | 63 | 326 | 0.0 | 3.5 | 0.00 | 0.00 | 0.00 | 79 | 1007.8 |
| 20260901104512 | 63 | 288 | 0.9 | 5.2 | 0.00 | 0.00 | 0.00 | 79 | 1008.0 |
| 20260901103008 | 63 | 346 | 3.5 | 6.1 | 0.00 | 0.00 | 0.00 | 79 | 1008.1 |
| 20260901101508 | 63 | 24 | 4.3 | 7.8 | 0.00 | 0.00 | 0.00 | 79 | 1008.2 |
| 20260901100005 | 64 | 16 | 5.2 | 8.7 | 0.00 | 0.00 | 0.00 | 78 | 1008.4 |
| 20260901094503 | 64 | 316 | 1.7 | 3.5 | 0.00 | 0.00 | 0.00 | 75 | 1009.4 |
| 20260901093103 | 64 | 41 | 0.0 | 3.5 | 0.00 | 0.00 | 0.00 | 74 | 1009.2 |
| 20260901091604 | 64 | 49 | 2.6 | 4.3 | 0.00 | 0.00 | 0.00 | 73 | 1008.9 |
| 20260901090058 | 64 | 34 | 2.6 | 5.2 | 0.00 | 0.00 | 0.00 | 72 | 1008.9 |
| 20260901084558 | 65 | 28 | 0.0 | 6.1 | 0.00 | 0.00 | 0.00 | 70 | 1008.8 |
| 20260901083057 | 65 | 80 | 0.0 | 7.0 | 0.00 | 0.00 | 0.00 | 70 | 1008.8 |
| 20260901081554 | 65 | 77 | 0.0 | 0.0 | 0.00 | 0.00 | 0.00 | 68 | 1008.8 |
| 20260901080053 | 65 | 77 | 0.0 | 0.0 | 0.00 | 0.00 | 0.00 | 66 | 1008.8 |
| 20260901074551 | 66 | 77 | 0.0 | 3.5 | 0.00 | 0.00 | 0.00 | 65 | 1009.1 |
| 20260901073057 | 66 | 77 | 0.0 | 0.0 | 0.00 | 0.00 | 0.00 | 64 | 1009.2 |
| 20260901071548 | 67 | 77 | 0.0 | 0.9 | 0.00 | 0.00 | 0.00 | 63 | 1009.1 |
| 20260901070054 | 67 | 88 | 0.0 | 1.7 | 0.00 | 0.00 | 0.00 | 62 | 1009.2 |
| 20260901064544 | 67 | 88 | 0.0 | 2.6 | 0.00 | 0.00 | 0.00 | 62 | 1009.1 |
| 20260901063042 | 68 | 88 | 0.0 | 4.3 | 0.00 | 0.00 | 0.00 | 62 | 1009.1 |
| 20260901061539 | 68 | 298 | 0.9 | 2.6 | 0.00 | 0.00 | 0.00 | 61 | 1008.7 |
| 20260901060036 | 69 | 61 | 0.0 | 1.7 | 0.00 | 0.00 | 0.00 | 60 | 1008.7 |
| 20260901054536 | 69 | 55 | 2.6 | 3.5 | 0.00 | 0.00 | 0.00 | 59 | 1008.6 |
| 20260901053036 | 70 | 68 | 2.6 | 6.1 | 0.00 | 0.00 | 0.00 | 59 | 1008.8 |
| 20260901051542 | 70 | 72 | 0.0 | 2.6 | 0.00 | 0.00 | 0.00 | 58 | 1008.7 |
| 20260901050035 | 70 | 64 | 2.6 | 4.3 | 0.00 | 0.00 | 0.00 | 59 | 1008.7 |
| 20260901044551 | 70 | 172 | 0.0 | 3.5 | 0.00 | 0.00 | 0.00 | 58 | 1009.0 |
| 20260901043034 | 70 | 172 | 0.0 | 1.7 | 0.00 | 0.00 | 0.00 | 58 | 1009.0 |
| 20260901041533 | 71 | 115 | 2.6 | 4.3 | 0.00 | 0.00 | 0.00 | 55 | 1009.0 |
| 20260901040033 | 72 | 138 | 0.0 | 1.7 | 0.00 | 0.00 | 0.00 | 53 | 1009.0 |
| 20260901034535 | 73 | 132 | 2.6 | 7.0 | 0.00 | 0.00 | 0.00 | 52 | 1009.2 |
| 20260901033049 | 73 | 188 | 0.9 | 8.7 | 0.00 | 0.00 | 0.00 | 50 | 1009.4 |
| 20260901031533 | 73 | 179 | 3.5 | 7.8 | 0.00 | 0.00 | 0.00 | 49 | 1009.6 |
| 20260901030035 | 73 | 216 | 5.2 | 11.3 | 0.00 | 0.00 | 0.00 | 51 | 1009.3 |
| 20260901024530 | 72 | 240 | 2.6 | 6.1 | 0.00 | 0.00 | 0.00 | 53 | 1009.2 |
| 20260901023031 | 73 | 211 | 3.5 | 7.0 | 0.00 | 0.00 | 0.00 | 51 | 1008.5 |
| 20260901021536 | 73 | 170 | 4.3 | 7.0 | 0.00 | 0.00 | 0.00 | 50 | 1007.7 |
| 20260901020033 | 74 | 199 | 7.0 | 10.4 | 0.00 | 0.00 | 0.00 | 47 | 1007.5 |
| 20260901014528 | 75 | 136 | 2.6 | 5.2 | 0.00 | 0.00 | 0.00 | 47 | 1006.9 |
| 20260901013032 | 76 | 139 | 3.5 | 11.3 | 0.00 | 0.00 | 0.00 | 47 | 1006.7 |
| 20260901011528 | 77 | 110 | 3.5 | 12.2 | 0.00 | 0.00 | 0.00 | 45 | 1006.7 |
| 20260901010030 | 78 | 76 | 1.7 | 13.0 | 0.00 | 0.00 | 0.00 | 42 | 1006.1 |
| 20260901004526 | 79 | 94 | 1.7 | 4.3 | 0.00 | 0.00 | 0.00 | 39 | 1005.8 |
| 20260901003036 | 79 | 181 | 0.9 | 2.6 | 0.00 | 0.00 | 0.00 | 39 | 1005.8 |
| 20260901001524 | 80 | 181 | 0.9 | 3.5 | 0.00 | 0.00 | 0.00 | 38 | 1005.8 |
| 20260901000031 | 79 | 130 | 0.9 | 6.1 | 0.00 | 0.00 | 0.00 | 40 | 1006.1 |
| 20260831234522 | 79 | 178 | 1.7 | 5.2 | 0.00 | 0.00 | 0.00 | 40 | 1006.0 |
| 20260831233021 | 79 | 153 | 2.6 | 7.0 | 0.00 | 0.00 | 0.00 | 41 | 1006.0 |
| 20260831231519 | 80 | 164 | 4.3 | 9.6 | 0.00 | 0.00 | 0.00 | 40 | 1006.4 |
| 20260831230018 | 81 | 175 | 3.5 | 12.2 | 0.00 | 0.00 | 0.00 | 34 | 1006.5 |
| 20260831224514 | 83 | 161 | 5.2 | 10.4 | 0.00 | 0.00 | 0.00 | 31 | 1006.8 |
| 20260831223012 | 83 | 136 | 6.1 | 10.4 | 0.00 | 0.00 | 0.00 | 30 | 1007.1 |
| 20260831221511 | 84 | 122 | 4.3 | 7.8 | 0.00 | 0.00 | 0.00 | 28 | 1007.6 |
| 20260831220020 | 84 | 171 | 3.5 | 9.6 | 0.00 | 0.00 | 0.00 | 27 | 1007.7 |
| 20260831214509 | 84 | 78 | 2.6 | 6.1 | 0.00 | 0.00 | 0.00 | 27 | 1007.5 |
| 20260831213010 | 84 | 215 | 0.9 | 6.1 | 0.00 | 0.00 | 0.00 | 27 | 1007.6 |
| 20260831211507 | 84 | 261 | 0.0 | 3.5 | 0.00 | 0.00 | 0.00 | 26 | 1007.6 |
| 20260831210007 | 84 | 213 | 2.6 | 6.1 | 0.00 | 0.00 | 0.00 | 27 | 1007.7 |
| 20260831204507 | 84 | 281 | 2.6 | 5.2 | 0.00 | 0.00 | 0.00 | 28 | 1008.0 |
| 20260831203006 | 84 | 332 | 1.7 | 7.0 | 0.00 | 0.00 | 0.00 | 28 | 1008.1 |
| 20260831201505 | 84 | 299 | 5.2 | 10.4 | 0.00 | 0.00 | 0.00 | 27 | 1008.1 |
| 20260831200005 | 83 | 233 | 1.7 | 13.0 | 0.00 | 0.00 | 0.00 | 28 | 1008.1 |
| 20260831194507 | 84 | 308 | 6.1 | 13.0 | 0.00 | 0.00 | 0.00 | 27 | 1008.2 |
| 20260831193004 | 84 | 317 | 5.2 | 13.0 | 0.00 | 0.00 | 0.00 | 27 | 1008.2 |
| 20260831191504 | 84 | 280 | 5.2 | 13.9 | 0.00 | 0.00 | 0.00 | 27 | 1008.4 |
| 20260831190004 | 85 | 297 | 4.3 | 11.3 | 0.00 | 0.00 | 0.00 | 27 | 1008.4 |
| 20260831184503 | 84 | 291 | 6.1 | 12.2 | 0.00 | 0.00 | 0.00 | 29 | 1008.8 |
| 20260831183104 | 84 | 250 | 4.3 | 9.6 | 0.00 | 0.00 | 0.00 | 28 | 1009.0 |
| 20260831181602 | 83 | 261 | 4.3 | 9.6 | 0.00 | 0.00 | 0.00 | 30 | 1009.2 |
| 20260831180100 | 81 | 302 | 4.3 | 11.3 | 0.00 | 0.00 | 0.00 | 31 | 1009.6 |
| 20260831174555 | 81 | 307 | 2.6 | 9.6 | 0.00 | 0.00 | 0.00 | 31 | 1009.6 |
| 20260831173057 | 81 | 340 | 1.7 | 9.6 | 0.00 | 0.00 | 0.00 | 32 | 1009.7 |
| 20260831171551 | 81 | 321 | 3.5 | 8.7 | 0.00 | 0.00 | 0.00 | 32 | 1009.7 |
| 20260831170049 | 80 | 323 | 1.7 | 4.3 | 0.00 | 0.00 | 0.00 | 33 | 1009.7 |
| 20260831164545 | 79 | 300 | 1.7 | 7.0 | 0.00 | 0.00 | 0.00 | 35 | 1009.8 |
| 20260831163042 | 77 | 290 | 5.2 | 8.7 | 0.00 | 0.00 | 0.00 | 39 | 1009.8 |
| 20260831161541 | 74 | 250 | 0.0 | 5.2 | 0.00 | 0.00 | 0.00 | 46 | 1010.0 |
| 20260831160035 | 72 | 253 | 1.7 | 4.3 | 0.00 | 0.00 | 0.00 | 47 | 1010.2 |
| 20260831154532 | 71 | 253 | 1.7 | 4.3 | 0.00 | 0.00 | 0.00 | 45 | 1010.3 |
| 20260831153029 | 69 | 203 | 1.7 | 5.2 | 0.00 | 0.00 | 0.00 | 51 | 1010.4 |
| 20260831151530 | 68 | 190 | 0.9 | 3.5 | 0.00 | 0.00 | 0.00 | 53 | 1010.2 |
| 20260831150028 | 67 | 241 | 0.0 | 5.2 | 0.00 | 0.00 | 0.00 | 56 | 1010.1 |
| 20260831144527 | 66 | 356 | 1.7 | 5.2 | 0.00 | 0.00 | 0.00 | 56 | 1009.9 |
| 20260831143027 | 66 | 213 | 0.0 | 4.3 | 0.00 | 0.00 | 0.00 | 57 | 1010.4 |
| 20260831141526 | 65 | 261 | 0.9 | 3.5 | 0.00 | 0.00 | 0.00 | 58 | 1010.3 |
| 20260831140027 | 65 | 317 | 0.9 | 3.5 | 0.00 | 0.00 | 0.00 | 60 | 1010.1 |
| 20260831134523 | 64 | 12 | 0.0 | 1.7 | 0.00 | 0.00 | 0.00 | 60 | 1010.2 |
| 20260831133026 | 63 | 12 | 0.0 | 3.5 | 0.00 | 0.00 | 0.00 | 61 | 1010.2 |
| 20260831131518 | 63 | 7 | 1.7 | 4.3 | 0.00 | 0.00 | 0.00 | 61 | 1010.0 |
| 20260831130018 | 63 | 8 | 0.0 | 4.3 | 0.00 | 0.00 | 0.00 | 62 | 1009.6 |